SL-8 R/B

Satellite information

Favourite Embed

Satellite Type and Status

ROCKET BODYIN ORBIT

Key statistics

Satellite SL-8 R/B at a glance.

Uptime

16608

Days in orbit

Revolutions

≈ 13.8

Per day

Orbit

LEO

Low Earth Orbit

Inclination

82.9

Latest

Satellite identification and parameters

Extended collection of information and parameters for SL-8 R/B.

Object identification

Identified? True

Debris? False

Object name: SL-8 R/B

International designator: 1980-022B

Object number (NORAD): 11736

Object ID (CCSDS): 11736

Country: COMMONWEALTH OF INDEPENDENT STATES (CIS)

Current information (Y/N): Y

RCS size: LARGE

Orbital parameters

Period: 104.592 minutes

Inclination: 82.9383 deg

SMA: 7353.478 km

Apoapsis: 999.582 km

Periapsis: 951.104 km

RAAN: 89.4616 deg

Eccentricy: 0.00329622

Argument of periapsis: 343.2476 deg

Mean anomaly: 16.7589 deg

Mean motion: 13.76776832 rev/day

Mean motion (dot): 0.00000134 rev/day2

B* drag term: 0.00012108514 1/REarth

Two-line elements (TLE)

Creation date: Sept. 4, 2025, 10:13 a.m.

Reference frame: TEME

Reference center: EARTH

Epoch: Sept. 4, 2025, 6:10 a.m. UTC

TLE line 0: 0 SL-8 R/B

TLE line 1: 1 11736U 80022B 25247.25695137 .00000134 00000-0 12109-3 0 9992

TLE line 2: 2 11736 82.9383 89.4616 0032962 343.2476 16.7589 13.76776832283401

Live tracking on map

Real-time ground track for satellite SL-8 R/B.

In-orbit conjunctions

A list of the most updated potential collisions computed for object SL-8 R/B.

Target Orbit TCA Probability of collision Miss distance Type
FENGYUN 1C DEB SSO 2024-09-25 17:03:59 0.0001998439 193.0 (m) DEBRIS
FENGYUN 1C DEB SSO 2024-09-20 05:09:09 0.0001450394 130.0 (m) DEBRIS

Associated space launch

Civilian navigation satellite equivalent to the purely military Parus

SL-8 R/B was lifted into orbit during the mission ‘Kosmos-3M | Tsikada 6’, on board a Kosmos-3M space rocket.

The launch took place on March 17, 1980, 9:37 p.m. from 132/1 (132L).

For more information about the launch, click the button.

Launch to space Kosmos-3M | Tsikada 6
Kosmos-3M | Tsikada 6

Agency: N/A

Status: Launch Successful

Launch date: March 17, 1980, 9:37 p.m. UTC

Rocket: Kosmos-3M

Launch pad: 132/1 (132L)

Location: Plesetsk Cosmodrome, Russian Federation

...

Latest news about this satellite

There are no fresh news available about this satellite. Check back as we update our databases every day.


Newsletter sign-up

Weekly statistics, charts and insights to help you stay on top of the space industry.